Wetbulb
56.19 56.17 55.98 55.74 55.41 55.39 55.63 55.73 55.68 55.77 55.99 56.10 56.17 56.09 56.41 56.47 56.57 53.34 49.64 54.73 57.45 61.57 61.00 59.98 59.34 56.66 53.54 49.90 48.56 45.37 36.12 33.22 36.19 36.81 38.46 42.73 41.10 43.62 44.12 41.36 40.39 40.19 39.40 40.59 47.43
55.91 55.86 55.60 55.03 54.82 54.90 55.14 55.35 55.43 55.59 55.67 55.73 55.74 55.77 55.89 55.86 51.09 48.60 55.03 59.23 61.41 61.47 54.81 55.56 53.97 52.50 48.39 46.90 47.22 41.83 36.35 36.67 41.03 42.52 41.09 42.20 41.66 41.41 41.25 40.63 40.48 39.68 43.05 47.31 48.08
55.51 55.23 54.92 54.56 54.51 54.59 54.85 54.97 55.09 55.49 55.58 55.61 55.18 55.09 54.73 54.06 46.86 47.58 57.91 60.34 60.52 61.10 55.75 53.16 52.93 50.33 45.45 44.05 44.56 42.71 39.29 42.65 43.54 44.78 44.43 43.28 42.90 43.06 39.95 38.02 41.45 40.57 41.45 46.64 47.12
55.06 54.84 54.49 54.38 54.38 54.57 54.75 54.60 54.84 55.54 55.92 55.95 54.99 54.31 54.12 51.13 33.25 49.85 59.14 62.30 62.23 58.70 54.20 51.52 49.56 45.87 41.14 41.48 43.72 38.40 43.37 45.04 43.90 45.15 44.06 42.40 43.14 41.23 41.66 42.48 44.61 44.13 44.75 46.27 45.83
54.88 54.53 54.15 54.12 54.21 54.27 54.13 54.26 54.89 55.69 56.09 55.68 54.71 53.95 50.92 44.31 43.75 52.71 58.92 61.27 59.39 57.18 51.66 50.12 46.36 45.50 39.95 40.14 42.93 38.93 42.40 43.85 45.73 45.39 44.12 44.46 42.13 41.46 40.40 44.79 44.45 42.73 42.95 45.07 45.69
54.70 54.22 53.76 53.69 53.85 53.78 53.86 54.35 55.13 55.57 55.77 55.53 54.66 55.06 47.27 37.65 51.11 53.96 55.09 54.52 54.33 53.18 49.91 48.63 47.97 46.76 42.90 40.46 39.62 40.86 42.77 43.11 43.70 43.50 43.59 41.84 41.73 40.87 41.86 43.44 43.45 41.29 40.13 41.55 44.40
54.18 53.46 53.72 53.52 53.59 53.66 54.13 54.88 55.23 55.30 55.57 55.94 55.38 53.70 45.82 42.32 49.42 47.44 52.77 53.21 53.49 53.62 49.62 49.62 46.32 46.06 42.56 37.79 41.47 40.32 36.66 38.50 38.90 40.88 40.12 41.92 37.19 37.83 43.89 42.95 43.36 41.29 40.84 39.92 40.84
53.73 53.15 53.24 53.53 53.51 53.92 54.39 54.89 55.74 56.68 55.64 56.57 56.12 51.24 42.24 50.84 50.36 46.64 46.22 48.84 50.60 51.80 51.77 46.45 43.52 42.17 39.10 39.97 38.24 35.04 33.40 29.11 38.01 40.03 40.92 40.39 33.41 39.59 41.83 40.14 40.81 41.19 40.79 40.17 39.20
53.29 53.28 53.23 53.43 53.62 54.11 54.71 55.16 56.33 56.33 57.40 56.36 49.75 45.83 42.24 49.37 41.70 42.84 42.98 42.26 42.72 43.43 43.67 44.84 41.90 37.47 37.32 32.75 29.23 30.66 26.49 29.17 33.12 39.44 38.98 37.31 32.84 39.63 40.70 38.90 38.35 38.26 39.44 39.49 38.19
53.20 53.78 53.85 53.91 53.69 53.76 54.59 53.29 54.02 52.47 53.18 54.05 53.16 44.01 45.84 40.45 41.64 41.82 41.34 42.22 40.60 39.97 39.45 37.92 35.83 31.41 30.74 29.74 25.01 26.81 25.21 28.40 29.60 35.55 36.00 34.08 32.62 36.79 36.55 36.65 30.84 31.76 33.21 37.32 38.26
53.74 53.33 53.44 53.55 53.30 53.60 50.12 44.09 39.36 37.65 40.45 36.93 38.81 38.97 41.16 43.49 42.60 39.87 41.20 39.51 40.04 36.16 30.26 34.05 28.95 25.97 29.91 33.71 32.25 30.02 28.94 27.28 30.48 36.00 33.14 32.38 33.31 35.70 35.78 32.18 29.66 29.75 30.54 32.12 37.41
53.26 52.89 53.03 53.36 53.08 52.93 44.96 40.44 39.57 39.46 35.12 41.41 41.36 41.08 43.32 44.55 40.53 40.60 40.68 35.25 33.68 29.17 31.80 28.87 25.57 32.29 34.46 33.77 32.34 31.03 28.41 28.21 31.74 35.24 32.84 31.94 31.17 28.52 30.20 28.79 29.32 29.40 29.43 30.54 34.03
52.73 52.73 52.75 52.53 52.51 45.86 39.90 39.20 44.24 44.38 35.70 36.71 40.94 40.95 41.21 41.72 38.18 39.22 38.03 35.17 31.47 28.67 28.92 25.54 30.49 34.79 33.36 31.70 30.22 29.89 27.93 28.27 28.89 32.56 32.90 28.60 26.47 27.98 28.60 29.91 30.22 29.20 30.26 31.21 32.77
52.54 52.64 52.47 52.12 43.53 42.51 39.03 41.42 42.12 46.39 29.14 31.79 38.09 39.90 37.69 38.06 33.03 39.20 39.67 35.98 32.49 29.67 29.46 28.23 33.99 32.44 30.39 29.72 31.16 26.42 32.54 32.14 30.59 27.72 22.90 29.33 19.58 24.29 26.14 26.25 27.21 27.02 28.09 29.17 31.75
52.26 52.36 51.74 50.99 42.61 39.28 41.31 40.51 41.83 44.24 16.33 35.39 36.36 40.34 38.62 34.03 34.45 33.76 36.64 33.46 28.94 29.69 27.91 27.19 27.50 28.05 28.51 29.93 31.08 26.97 30.96 30.52 28.61 25.86 24.49 24.72 23.65 21.47 27.10 24.77 24.35 25.01 27.34 28.81 30.17
51.49 51.23 51.00 45.27 40.61 41.85 40.57 41.13 43.60 29.38 16.22 31.10 35.94 35.28 33.61 34.92 34.45 33.07 32.41 33.18 32.53 27.85 27.17 27.32 28.70 27.75 27.39 28.09 29.17 30.01 26.85 25.23 23.93 23.54 17.56 23.59 25.33 18.05 23.11 25.14 24.00 26.11 27.29 27.97 29.14
50.69 50.47 48.57 45.84 37.29 41.80 40.04 39.01 26.06 22.17 32.00 28.04 28.65 31.66 30.33 29.55 32.02 30.76 28.59 24.92 24.80 21.70 21.95 25.82 24.32 25.96 29.01 25.28 26.63 27.14 24.54 20.22 15.10 13.08 17.48 23.54 23.26 19.05 22.59 23.27 25.14 25.09 26.66 27.47 28.78
49.74 49.45 45.58 44.03 41.93 39.46 38.05 30.47 20.69 26.52 24.98 31.00 29.73 28.87 27.24 27.89 28.68 30.28 29.34 25.85 27.82 25.07 22.40 21.86 20.87 24.51 27.50 25.81 24.26 23.38 24.47 20.65 9.83 11.63 14.33 22.10 16.73 17.92 18.87 20.07 23.28 25.75 27.12 28.49 28.01
48.15 41.45 39.72 40.25 40.65 39.15 31.41 19.02 21.37 25.42 27.43 25.87 26.90 22.32 24.17 27.29 25.82 27.83 26.12 27.02 29.29 29.76 24.45 24.11 22.95 25.08 27.98 27.42 29.42 25.87 23.33 28.66 22.58 23.57 15.99 20.14 18.94 21.59 25.50 25.55 25.46 26.08 27.50 26.86 27.60
39.99 37.00 36.89 40.45 39.11 36.86 27.33 24.87 24.54 29.81 29.74 28.84 21.86 23.21 18.59 22.23 22.08 22.83 22.59 27.83 28.76 32.35 31.74 26.37 21.26 24.82 24.52 29.22 29.29 28.70 29.58 21.25 23.39 14.45 14.14 17.76 18.71 18.37 21.02 23.68 25.09 24.94 23.80 24.04 27.08
35.56 31.67 36.83 40.72 37.75 31.47 22.83 26.63 28.74 31.78 30.21 25.00 22.64 21.75 20.66 20.62 20.58 20.26 22.92 25.82 28.93 28.59 32.45 25.93 25.08 21.59 22.71 22.18 23.25 25.36 24.68 24.63 23.02 21.26 13.17 12.16 14.37 24.51 22.07 23.96 24.50 24.86 25.71 24.95 25.38
35.30 26.89 36.81 38.52 25.91 24.06 23.09 27.17 32.26 29.12 29.33 26.86 25.10 23.95 21.73 21.00 18.08 20.32 21.99 24.02 29.47 28.02 22.10 25.81 24.13 19.26 22.36 28.65 30.30 26.13 23.03 25.10 18.89 13.61 15.59 14.73 14.91 26.31 25.97 25.90 26.81 26.78 28.29 28.40 28.12
33.24 31.14 37.09 34.61 22.58 21.84 26.01 27.33 29.83 27.84 26.98 26.73 24.78 26.89 25.59 21.11 13.69 21.25 23.25 28.58 28.35 24.71 18.21 22.61 19.18 10.90 16.59 21.47 24.08 21.13 23.85 23.73 20.51 20.22 13.76 9.97 16.41 27.45 27.98 28.22 27.88 25.48 26.94 27.86 27.19
34.28 25.86 28.53 29.58 28.66 25.55 24.00 23.99 24.78 29.46 28.84 29.08 26.64 27.58 22.24 20.75 23.36 17.29 19.35 25.81 27.65 24.68 30.63 25.82 15.95 16.55 11.43 17.63 21.10 17.27 23.09 23.33 16.17 7.13 10.89 14.35 19.73 24.90 26.69 28.51 30.85 29.23 26.69 23.19 24.57
34.77 29.37 28.86 20.70 23.52 24.76 25.81 25.27 23.41 23.42 29.14 28.37 25.01 25.42 21.13 11.60 13.28 16.28 19.66 19.94 23.30 25.98 22.55 18.95 8.70 16.31 19.42 20.39 20.44 19.38 19.92 20.34 16.75 15.66 9.82 13.96 19.37 23.15 25.86 26.44 28.63 23.04 22.63 23.14 23.41
32.27 29.10 32.91 27.17 27.90 23.08 23.75 21.00 23.83 26.05 26.20 24.56 24.29 25.64 23.76 17.48 18.38 9.96 10.93 12.34 13.82 14.90 19.94 21.78 9.76 18.20 13.49 19.31 19.85 17.51 18.91 19.09 20.01 19.02 13.22 16.36 15.07 20.18 17.00 19.94 20.34 22.60 23.30 22.80 22.63
37.04 36.45 32.23 27.65 24.14 23.60 21.33 24.35 22.80 26.79 26.05 28.85 27.48 26.04 22.92 24.56 26.19 23.68 21.82 21.91 20.38 17.95 17.37 15.83 14.43 13.34 4.17 18.52 16.55 9.29 15.21 18.38 17.74 18.97 17.47 10.89 17.74 17.83 17.94 20.69 19.15 20.30 22.02 21.73 21.67
MSLP
1018.94 1018.51 1017.93 1017.42 1016.84 1016.39 1015.78 1015.20 1014.68 1014.26 1013.84 1013.54 1013.30 1013.04 1012.74 1012.49 1012.20 1012.18 1011.38 1009.93 1010.00 1009.83 1009.84 1010.33 1011.17 1011.71 1012.15 1012.47 1012.27 1012.41 1012.98 1012.51 1011.61 1010.88 1009.38 1008.54 1008.49 1008.23 1008.15 1008.73 1009.56 1010.62 1011.00 1011.42 1012.56
1018.97 1018.39 1017.75 1017.22 1016.64 1015.98 1015.37 1014.77 1014.19 1013.65 1013.24 1012.94 1012.77 1012.61 1012.35 1012.15 1011.89 1010.92 1009.26 1008.80 1008.81 1009.00 1009.68 1009.76 1010.45 1011.30 1012.10 1012.07 1012.12 1012.27 1012.09 1011.15 1010.00 1009.69 1008.93 1008.74 1008.51 1008.38 1008.42 1009.05 1010.16 1011.21 1011.96 1012.27 1013.04
1018.95 1018.41 1017.82 1017.28 1016.53 1015.76 1015.03 1014.39 1013.81 1013.23 1012.79 1012.48 1012.22 1012.08 1012.04 1011.93 1011.24 1008.49 1007.27 1007.53 1008.10 1008.71 1009.40 1009.78 1010.15 1010.85 1011.60 1011.50 1011.35 1011.05 1010.50 1010.33 1009.62 1009.43 1009.36 1009.07 1008.92 1008.50 1008.73 1009.29 1009.53 1010.53 1012.17 1012.91 1013.41
1019.01 1018.40 1017.76 1017.08 1016.29 1015.46 1014.69 1013.94 1013.31 1012.74 1012.23 1011.99 1011.90 1011.85 1011.74 1011.69 1010.27 1007.07 1006.74 1006.31 1006.67 1008.08 1009.15 1009.72 1010.41 1010.94 1011.15 1010.97 1010.54 1010.72 1009.95 1009.71 1009.30 1009.38 1009.59 1009.35 1008.91 1008.76 1008.82 1008.85 1008.98 1009.80 1011.01 1012.40 1013.24
1018.82 1018.17 1017.47 1016.70 1015.82 1014.97 1014.15 1013.40 1012.72 1012.14 1011.66 1011.45 1011.56 1011.73 1011.87 1011.31 1009.22 1007.40 1006.88 1006.25 1006.55 1007.74 1008.32 1009.10 1009.80 1010.38 1010.46 1010.45 1010.57 1010.14 1009.76 1009.51 1009.41 1009.23 1009.32 1009.29 1009.28 1009.12 1008.91 1008.65 1009.03 1010.08 1011.58 1012.06 1012.54
1018.56 1017.85 1017.16 1016.33 1015.36 1014.33 1013.39 1012.58 1011.95 1011.44 1011.14 1010.82 1011.01 1011.41 1011.80 1010.99 1008.08 1007.35 1007.24 1007.19 1007.24 1007.74 1008.24 1008.79 1008.90 1009.23 1009.76 1009.95 1010.15 1009.66 1009.66 1009.44 1009.15 1009.21 1009.13 1009.15 1008.85 1009.16 1008.80 1008.58 1009.31 1010.25 1011.09 1011.77 1012.33
1018.52 1017.79 1016.99 1015.95 1014.95 1013.88 1012.79 1011.93 1011.23 1010.66 1010.34 1010.15 1010.39 1010.86 1010.76 1009.19 1007.81 1007.60 1007.44 1007.51 1007.57 1007.81 1008.28 1008.62 1008.84 1009.19 1009.41 1009.88 1009.67 1009.67 1009.80 1009.48 1009.24 1008.96 1008.89 1008.78 1008.40 1008.58 1008.35 1008.62 1008.99 1009.73 1010.26 1011.25 1011.82
1018.50 1017.66 1016.81 1015.76 1014.66 1013.52 1012.27 1011.34 1010.32 1009.58 1009.80 1009.69 1009.85 1010.40 1009.77 1007.95 1007.62 1007.83 1007.34 1007.49 1007.60 1007.74 1008.12 1008.34 1008.65 1009.20 1009.54 1009.62 1009.71 1009.93 1009.85 1009.59 1008.72 1008.82 1008.67 1008.73 1007.54 1008.03 1007.85 1008.61 1008.97 1009.19 1009.71 1010.30 1011.13
1018.49 1017.60 1016.61 1015.60 1014.64 1013.48 1012.02 1010.87 1010.07 1009.65 1009.51 1009.56 1010.02 1010.29 1008.98 1007.73 1007.80 1007.45 1007.38 1007.44 1007.61 1007.87 1008.09 1008.23 1008.60 1009.02 1009.48 1010.08 1010.55 1010.11 1009.84 1009.57 1009.10 1008.33 1008.55 1008.71 1007.91 1007.86 1007.75 1008.56 1009.10 1009.59 1009.96 1010.28 1011.00
1018.49 1017.56 1016.49 1015.36 1014.30 1013.33 1011.98 1010.59 1010.05 1009.87 1009.86 1009.86 1009.81 1010.52 1008.60 1007.65 1007.39 1007.42 1007.47 1007.60 1007.92 1008.20 1008.65 1008.82 1009.16 1009.23 1009.60 1009.95 1008.94 1009.78 1010.00 1009.55 1009.02 1008.50 1008.49 1008.70 1008.59 1008.40 1008.44 1009.13 1010.33 1010.85 1010.98 1011.04 1011.29
1018.36 1017.47 1016.50 1015.49 1014.36 1013.38 1012.18 1011.22 1011.42 1010.87 1010.88 1010.62 1009.89 1009.56 1008.49 1007.83 1007.54 1007.46 1007.44 1007.83 1008.13 1008.68 1009.14 1009.33 1009.62 1009.22 1009.07 1008.94 1009.29 1009.55 1009.56 1009.27 1008.93 1008.56 1008.84 1008.97 1009.09 1008.97 1009.68 1010.53 1011.41 1011.98 1012.11 1012.08 1012.16
1018.38 1017.45 1016.44 1015.27 1014.39 1013.55 1013.28 1013.65 1014.11 1013.92 1011.86 1009.83 1009.25 1009.18 1008.45 1008.28 1007.83 1007.45 1007.54 1008.13 1008.52 1008.98 1009.43 1009.90 1009.26 1009.06 1009.20 1009.35 1009.37 1009.48 1009.45 1008.84 1008.78 1008.65 1008.81 1008.98 1009.32 1010.47 1011.00 1012.49 1013.01 1013.58 1013.55 1013.13 1012.94
1018.39 1017.39 1016.57 1015.35 1014.14 1013.98 1014.25 1014.41 1014.04 1014.00 1012.82 1009.36 1008.17 1007.62 1007.36 1007.72 1007.49 1007.37 1007.55 1007.83 1008.46 1009.13 1009.35 1009.40 1008.44 1007.99 1008.96 1009.27 1009.36 1009.16 1009.16 1009.00 1008.89 1008.65 1008.54 1008.99 1009.82 1011.02 1012.68 1013.46 1014.09 1014.56 1014.62 1014.06 1013.79
1018.22 1017.26 1016.45 1015.87 1014.34 1014.70 1014.27 1014.13 1013.85 1013.72 1012.65 1009.12 1007.79 1007.10 1007.19 1007.29 1007.46 1007.23 1007.58 1007.97 1008.39 1008.73 1009.19 1009.23 1008.21 1008.33 1008.73 1008.86 1009.01 1009.05 1008.55 1008.64 1008.88 1009.10 1009.04 1009.24 1010.42 1011.54 1013.11 1014.41 1015.31 1015.83 1015.64 1015.21 1014.69
1017.96 1016.94 1016.35 1015.68 1015.53 1014.93 1014.09 1013.61 1013.35 1013.68 1012.26 1008.47 1007.57 1006.95 1007.10 1007.74 1007.63 1007.50 1007.61 1007.98 1008.25 1008.50 1008.91 1008.57 1008.05 1007.98 1008.35 1008.24 1008.56 1008.62 1008.61 1008.76 1008.93 1009.27 1009.54 1010.21 1011.53 1012.28 1013.75 1015.41 1016.42 1016.89 1016.67 1016.24 1015.89
1018.07 1016.84 1015.88 1015.60 1015.51 1014.23 1013.84 1013.60 1013.53 1013.51 1010.62 1008.55 1007.87 1007.78 1007.72 1007.61 1007.67 1007.87 1008.03 1008.17 1008.34 1008.72 1008.74 1008.56 1008.15 1008.30 1008.21 1008.52 1008.65 1008.83 1009.25 1009.74 1009.89 1010.55 1010.72 1010.36 1011.88 1013.32 1014.70 1015.68 1016.87 1017.32 1017.26 1017.03 1016.82
1017.83 1016.48 1015.63 1015.14 1014.95 1013.80 1013.82 1013.93 1013.97 1012.56 1009.86 1009.99 1009.53 1009.05 1009.10 1008.67 1008.33 1008.36 1008.57 1008.89 1009.04 1009.47 1009.34 1008.93 1008.80 1008.74 1008.52 1008.93 1009.20 1009.34 1009.82 1010.83 1011.50 1011.67 1010.99 1010.90 1012.43 1014.34 1015.68 1016.34 1016.80 1017.38 1017.69 1017.58 1017.51
1017.79 1016.22 1014.98 1014.58 1014.33 1014.16 1014.23 1014.17 1013.63 1011.80 1011.31 1010.90 1010.67 1010.03 1009.81 1009.78 1009.42 1009.23 1009.30 1009.81 1009.93 1009.99 1010.07 1009.85 1009.64 1009.20 1009.03 1009.03 1009.25 1009.74 1009.89 1010.50 1011.21 1011.59 1011.63 1011.94 1013.54 1015.20 1016.47 1016.99 1017.31 1017.83 1018.01 1018.07 1018.15
1017.48 1015.94 1015.18 1014.34 1014.17 1014.47 1014.98 1014.44 1012.90 1012.37 1012.17 1011.78 1011.26 1010.88 1010.89 1011.05 1010.94 1010.47 1010.66 1011.15 1011.38 1011.37 1011.37 1010.58 1010.31 1009.78 1009.55 1009.55 1009.65 1010.50 1010.70 1011.01 1011.40 1011.87 1012.24 1012.83 1014.78 1015.96 1016.63 1017.30 1017.75 1018.08 1018.13 1018.39 1018.64
1017.92 1016.77 1015.66 1014.69 1014.24 1014.47 1014.97 1014.04 1013.11 1012.66 1012.29 1012.18 1012.40 1012.27 1012.56 1012.68 1012.51 1012.28 1011.88 1012.72 1012.40 1012.48 1012.25 1011.42 1011.13 1010.59 1010.43 1010.33 1010.62 1010.94 1011.13 1011.86 1011.89 1012.24 1012.69 1013.36 1014.37 1015.52 1016.76 1017.42 1018.02 1018.52 1018.70 1019.02 1019.21
1018.53 1017.90 1015.11 1014.50 1014.51 1014.97 1015.03 1014.29 1013.50 1013.06 1012.61 1012.68 1012.89 1013.26 1013.61 1013.89 1013.85 1013.54 1013.16 1013.83 1013.55 1013.19 1012.79 1012.56 1011.91 1011.98 1011.32 1011.39 1011.44 1012.02 1011.81 1012.16 1012.38 1012.70 1013.15 1014.15 1014.91 1015.34 1016.32 1017.15 1017.82 1018.38 1018.82 1019.10 1019.43
1019.14 1018.58 1015.24 1014.95 1015.56 1015.85 1015.69 1015.42 1014.55 1013.48 1013.10 1012.96 1013.16 1013.78 1014.19 1014.71 1014.73 1014.49 1014.29 1014.37 1014.17 1013.92 1014.05 1013.95 1013.41 1013.02 1012.61 1012.35 1012.08 1012.29 1012.51 1012.52 1013.00 1013.97 1014.28 1014.51 1015.39 1015.54 1016.08 1017.06 1017.70 1018.29 1018.68 1018.98 1019.24
1019.27 1018.69 1016.16 1015.97 1016.75 1016.98 1016.63 1015.59 1014.93 1014.44 1013.65 1013.57 1013.95 1014.15 1014.61 1015.22 1015.64 1015.22 1015.07 1014.76 1014.75 1014.65 1014.69 1014.71 1014.74 1014.34 1013.70 1013.46 1012.94 1013.02 1013.47 1013.64 1014.00 1014.60 1014.97 1015.27 1015.80 1015.77 1016.27 1017.18 1017.70 1017.98 1018.54 1018.84 1019.05
1019.39 1018.82 1017.83 1017.33 1017.44 1017.50 1017.21 1016.16 1015.34 1014.79 1014.90 1014.60 1014.51 1014.35 1014.97 1015.44 1015.53 1015.55 1015.48 1015.34 1015.32 1015.29 1015.07 1015.27 1015.68 1015.68 1015.23 1014.56 1014.63 1014.26 1014.09 1014.30 1014.72 1015.58 1015.76 1015.84 1015.95 1016.31 1016.70 1016.96 1017.49 1018.03 1018.57 1019.09 1019.57
1019.74 1019.28 1018.94 1018.54 1018.06 1017.81 1017.70 1016.81 1015.90 1015.33 1015.23 1014.72 1014.66 1014.57 1015.21 1015.85 1016.04 1016.03 1015.90 1016.07 1015.91 1015.81 1015.82 1016.10 1016.59 1016.16 1015.64 1015.07 1014.99 1014.80 1014.57 1014.61 1015.00 1015.37 1015.94 1016.16 1016.30 1016.48 1016.64 1016.80 1017.32 1018.18 1019.02 1019.60 1020.06
1019.66 1019.27 1018.69 1018.34 1018.10 1017.86 1017.65 1017.08 1016.57 1015.81 1015.72 1014.96 1014.92 1014.76 1015.43 1015.94 1016.19 1016.44 1016.41 1016.66 1016.75 1016.58 1016.68 1016.81 1017.04 1016.65 1016.11 1015.17 1014.66 1014.58 1014.21 1014.23 1014.47 1014.98 1015.60 1015.95 1016.52 1016.56 1016.96 1017.11 1018.02 1018.60 1019.25 1020.01 1020.53
1019.67 1019.44 1018.97 1018.45 1018.35 1017.96 1017.49 1017.23 1016.83 1016.52 1015.40 1015.22 1015.07 1014.85 1015.20 1015.54 1015.81 1015.73 1015.93 1016.18 1016.23 1016.77 1017.01 1017.15 1017.19 1017.34 1016.87 1015.74 1014.84 1014.51 1013.67 1013.64 1014.03 1014.43 1015.12 1015.96 1016.35 1016.97 1017.74 1017.97 1018.61 1019.34 1019.77 1020.41 1020.91
Wind_Speed
23 23 23 24 25 25 24 23 22 21 20 19 17 15 14 14 15 9 15 11 13 22 2 8 6 3 3 3 3 4 3 6 7 9 7 3 1 3 2 2 5 5 2 2 17
24 24 24 25 26 26 26 25 25 24 21 19 16 15 14 13 10 16 18 23 23 9 8 18 17 10 4 6 5 6 5 11 5 12 5 1 4 2 3 4 2 4 6 12 16
24 24 25 26 26 27 27 26 25 23 22 19 16 13 11 9 6 9 5 21 25 21 8 6 10 8 7 5 8 6 12 12 10 6 3 5 5 1 1 3 7 9 11 12 12
25 25 26 27 28 28 28 27 24 22 20 17 14 10 6 4 8 3 8 10 20 15 11 8 7 8 8 12 7 5 9 20 3 10 2 4 2 4 6 6 1 8 20 15 14
26 27 29 29 30 29 29 27 23 21 18 15 11 7 3 6 12 8 9 3 15 13 17 13 8 8 9 6 11 7 15 8 15 14 8 8 10 8 6 11 7 14 14 17 16
28 29 30 31 32 32 31 27 23 21 17 12 7 7 4 8 6 6 2 3 3 10 10 10 9 9 7 6 9 4 16 19 12 12 9 8 11 8 8 6 8 14 15 14 15
29 30 31 32 33 33 32 29 27 22 16 6 7 7 8 15 4 7 0 3 1 6 6 5 0 8 6 2 4 6 11 9 5 6 7 7 8 11 15 9 10 13 13 13 14
30 31 31 32 33 33 32 29 27 17 6 2 9 5 8 6 9 8 1 2 1 3 3 3 3 6 4 3 6 3 2 4 7 8 6 8 13 7 10 7 11 10 10 14 14
30 32 33 31 31 30 29 29 14 6 5 12 6 3 8 2 2 5 5 3 3 2 1 1 3 5 4 5 3 3 5 6 4 7 5 9 7 7 8 8 10 8 8 9 9
30 30 31 32 31 29 27 22 7 5 2 6 2 2 4 3 2 1 1 4 2 3 2 3 2 4 4 6 15 9 5 5 6 5 6 7 7 6 4 4 6 7 7 3 9
29 30 31 31 33 27 16 6 9 6 6 6 5 4 5 1 1 2 2 4 4 4 6 3 4 10 13 17 6 3 4 7 2 5 3 6 9 12 2 8 8 7 7 6 5
29 30 31 32 33 16 5 6 4 5 13 10 16 14 14 5 4 4 4 5 5 6 4 1 11 11 7 8 11 10 10 14 6 9 8 9 10 5 7 4 5 6 7 7 4
27 29 30 32 31 4 2 4 7 3 7 9 6 4 4 8 5 5 9 4 4 5 7 7 8 6 12 8 11 13 14 10 12 5 6 3 4 4 5 7 7 7 5 6 6
27 27 30 32 6 5 3 4 6 4 5 6 3 2 2 4 3 1 5 5 4 9 7 8 14 11 8 8 11 12 9 13 9 5 6 4 5 2 4 5 7 6 7 8 7
28 29 27 23 5 4 5 6 6 2 5 1 2 0 2 3 2 4 1 2 5 4 5 7 2 3 10 10 6 6 2 5 2 4 4 4 1 2 8 3 1 4 5 7 7
26 31 30 6 3 7 6 7 1 1 11 2 4 4 3 2 3 3 1 1 1 2 4 8 1 0 3 3 0 6 5 5 4 2 2 11 9 4 4 4 3 2 2 4 6
27 32 24 5 5 5 4 2 2 6 6 5 5 7 4 4 3 3 4 3 4 1 3 1 2 0 2 4 3 1 5 1 2 0 6 2 6 1 4 2 3 6 4 2 3
29 30 11 7 5 4 3 3 6 3 3 3 4 11 3 7 3 4 2 3 5 2 2 3 3 4 2 2 3 6 4 5 8 6 4 1 5 2 3 2 5 4 4 4 4
25 7 5 4 3 2 4 0 4 4 3 6 9 2 3 5 6 6 3 4 4 6 3 4 4 0 0 1 3 2 3 2 3 1 2 4 3 2 2 4 3 3 3 4 4
9 5 6 5 4 3 3 5 3 2 4 3 3 6 4 6 6 6 3 5 7 7 5 4 4 2 2 3 5 1 2 3 3 5 4 1 4 4 6 6 5 4 4 1 3
4 6 6 9 3 4 2 0 3 3 2 1 2 3 3 3 3 4 4 5 7 6 7 7 3 1 3 2 4 3 3 2 1 1 4 4 3 2 6 7 9 7 5 5 4
2 5 5 5 5 2 4 7 12 9 1 2 2 1 1 2 3 3 4 1 4 3 4 5 3 3 3 4 3 3 1 2 3 2 2 1 2 1 5 6 5 6 6 6 6
5 4 6 3 4 4 7 8 5 7 6 4 3 1 1 3 1 3 1 3 3 2 3 3 3 3 2 3 4 5 1 2 4 2 1 4 2 4 12 9 6 9 6 5 7
3 4 5 4 1 2 6 7 8 6 6 2 8 3 2 3 5 3 1 1 1 3 7 1 1 2 2 3 4 3 3 2 4 4 3 2 4 6 7 10 9 6 5 5 5
1 2 2 4 4 7 4 5 14 6 4 4 4 9 5 3 1 4 1 5 3 5 1 6 2 3 6 7 4 8 7 6 5 5 5 4 5 5 11 12 10 7 7 6 5
3 3 3 3 6 3 3 3 10 6 3 5 7 8 5 4 5 7 4 2 6 5 2 2 3 2 4 7 9 8 8 7 8 4 4 6 4 1 1 7 8 10 9 7 6
2 4 3 5 3 2 3 3 8 11 7 6 10 12 5 3 6 7 8 5 6 6 3 4 4 2 5 5 7 3 6 8 4 4 8 5 7 6 5 9 8 7 7 7 6
Wind_Direction
357 353 350 345 341 337 332 327 322 317 312 308 305 302 297 299 297 277 242 228 200 237 324 132 150 188 102 249 208 137 190 205 228 173 232 274 117 284 121 122 52 7 73 237 128
355 351 348 344 338 334 330 326 321 315 309 303 299 297 299 301 290 264 238 226 223 219 188 170 184 163 189 205 202 176 212 217 222 218 235 135 182 226 147 149 46 46 21 118 133
353 349 346 340 336 332 328 325 321 316 310 302 293 291 294 303 286 241 238 224 228 217 198 195 165 153 194 164 205 207 229 235 252 258 228 263 313 276 200 228 203 189 162 154 155
352 348 344 339 335 331 327 323 320 316 312 306 292 278 267 247 252 186 314 286 205 196 170 168 165 173 189 206 213 244 224 235 279 234 267 258 230 246 191 234 48 168 165 156 170
350 347 343 339 335 331 326 322 317 314 312 306 288 260 236 234 257 294 305 130 147 184 180 178 172 188 188 193 236 237 243 248 243 248 249 276 261 239 220 239 99 127 160 179 181
348 346 341 339 336 332 327 320 315 311 307 302 257 207 213 249 263 255 281 74 124 165 176 173 205 189 209 220 189 241 234 255 251 253 244 226 252 158 241 223 181 154 185 188 189
348 345 341 339 337 334 327 321 317 306 299 290 211 178 222 247 297 327 87 207 154 174 163 195 221 182 182 258 228 246 269 266 238 234 237 195 247 227 241 197 223 189 187 192 198
345 344 342 340 338 334 326 322 318 306 290 217 178 161 245 239 242 286 248 252 205 183 188 153 146 188 168 310 352 280 253 216 205 199 230 168 245 234 244 187 228 227 194 190 183
343 341 340 340 340 336 326 324 327 48 63 129 125 173 263 307 228 241 178 189 157 131 185 155 160 188 139 152 314 234 235 214 294 211 201 185 255 239 228 191 236 266 218 190 153
341 338 338 339 340 337 326 326 330 355 81 184 228 252 256 238 183 164 158 137 147 125 81 153 194 175 141 164 219 216 221 227 190 220 197 229 254 271 178 134 65 35 19 137 174
340 338 338 338 337 336 334 1 10 344 39 251 263 280 269 315 353 216 183 130 114 110 183 211 186 214 205 215 235 207 234 233 249 231 225 244 248 230 81 54 63 42 26 27 91
338 338 339 336 336 336 2 65 165 255 297 256 250 251 252 267 271 229 139 156 159 197 159 337 245 233 219 219 227 231 246 253 263 264 197 242 238 80 51 57 49 30 21 17 78
337 336 338 335 330 43 85 78 290 254 275 290 217 200 192 161 224 236 152 164 183 203 195 189 227 212 196 215 222 234 235 249 243 262 214 159 297 154 54 73 54 24 357 16 58
336 334 335 336 353 334 281 312 304 217 295 270 232 228 109 152 242 178 188 163 210 210 197 233 246 236 210 225 210 247 228 230 224 180 235 150 264 258 111 77 47 16 12 17 44
335 332 333 335 262 311 288 319 303 188 325 118 100 151 123 195 155 223 144 114 215 205 130 240 272 168 217 222 193 230 183 181 174 173 129 198 148 216 133 148 33 356 9 27 35
335 327 327 326 285 245 335 321 151 208 248 13 60 359 351 209 221 105 128 8 207 249 213 233 180 49 161 98 69 148 84 41 55 96 240 202 187 246 186 177 167 192 79 64 61
333 321 321 302 256 302 357 36 336 218 336 12 348 332 18 280 352 161 172 190 197 211 249 325 196 3 128 107 30 145 123 167 328 213 239 199 176 147 334 339 136 150 134 82 65
332 315 308 277 268 342 16 41 224 89 350 17 305 302 149 10 340 326 44 329 37 293 165 214 268 179 183 177 161 199 208 176 202 194 220 166 203 222 258 339 71 91 124 113 92
334 299 312 282 2 73 49 299 263 9 338 314 309 355 355 9 3 353 90 22 30 3 228 205 260 325 144 109 130 133 260 37 103 143 92 144 83 34 60 70 74 115 99 109 116
328 318 295 320 345 87 114 241 305 345 322 342 301 40 336 347 4 17 292 5 351 19 336 285 245 206 143 72 20 139 143 151 213 193 198 112 149 170 179 161 146 155 162 191 157
7 333 266 345 62 55 171 106 312 339 299 274 287 306 312 347 320 299 355 52 348 341 20 351 4 261 111 205 165 163 179 189 59 141 156 140 248 146 166 173 168 170 174 176 174
348 325 297 9 14 348 26 338 341 301 260 316 47 335 274 15 301 290 9 23 314 342 14 4 323 293 43 7 86 91 86 159 168 214 71 73 241 112 156 140 135 142 150 149 165
316 274 303 42 19 353 315 306 283 324 297 30 297 159 203 174 357 246 43 261 309 41 142 301 15 315 218 164 24 64 47 50 78 74 127 123 155 86 121 132 143 131 130 151 126
293 306 310 30 151 306 350 304 319 327 328 316 255 163 248 228 220 252 216 291 289 325 321 116 87 215 259 39 38 349 338 112 104 103 172 158 135 155 175 166 162 159 145 140 135
291 305 284 296 324 309 299 286 300 303 267 269 297 224 204 195 311 241 109 7 313 307 34 117 188 218 257 270 242 263 242 200 176 177 135 196 164 193 207 196 175 143 131 129 126
255 244 209 258 273 276 270 270 320 344 261 257 231 259 183 178 212 214 145 180 215 330 139 50 256 3 284 274 246 227 233 227 216 165 74 163 223 199 105 108 127 141 139 136 131
338 344 298 287 314 258 245 291 317 318 286 252 282 279 145 185 258 236 207 197 194 162 225 161 142 79 274 15 350 345 228 213 180 170 155 158 208 151 123 123 137 142 132 140 145